Weather History for Marshalltown, IA

Change the Weather History Date:

Wednesday, October 2, 2013

  Actual Average Record
Temperature  
Mean Temperature 68 °F 56 °F  
Max Temperature 84 °F 68 °F 88 °F (1997)
Min Temperature 52 °F 43 °F 21 °F (2003)
Degree Days  
Heating Degree Days 0 10  
Month to date heating degree days 0 20  
Since 1 July heating degree days 100 180  
Cooling Degree Days 3 1  
Month to date cooling degree days 7 2  
Year to date cooling degree days 863 720  
Growing Degree Days 17 (Base 50)    
Moisture  
Dew Point 51 °F    
Average Humidity 54    
Maximum Humidity 77    
Minimum Humidity 31    
Precipitation  
Precipitation 0.00 in 0.07 in 1.35 in (2007)
Month to date precipitation 0.00 0.15  
Sea Level Pressure  
Sea Level Pressure 29.96 in    
Wind  
Wind Speed 8 mph (SE)    
Max Wind Speed 21 mph    
Max Gust Speed 26 mph    
Visibility 10 miles    
Events      
T = Trace of Precipitation, MM = Missing Value Source: NWS Daily Summary

Daily Weather History Graph

Daily Weather History Graph

Search for Another Location

Airport:

Trip Planner

Search our weather history database for the weather conditions in past years. The results will help you decide how hot, cold, wet, or windy it might be!

Date:

Astronomy

Oct. 02, 2013 Rise Set
Actual Time 7:10 AM CDT 6:51 PM CDT
Civil Twilight 6:42 AM CDT 7:18 PM CDT
Nautical Twilight 6:09 AM CDT 7:51 PM CDT
Astronomical Twilight 5:36 AM CDT 8:23 PM CDT
Moon 4:41 AM CDT (10/2) 5:28 PM CDT (10/2)
Length of Visible Light 12h 36m
Length of Day
11h 41m
Waning Crescent, 6% of the Moon is Illuminated
Oct 2
Waning Crescent
Oct 4
New
Oct 11
First Quarter
Oct 18
Full
Oct 26
Last Quarter

Hourly Weather History & Observations

Time (CDT) Temp. Heat Index Dew Point Humidity Pressure Visibility Wind Dir Wind Speed Gust Speed Precip Events Conditions
12:53 AM 57.0 °F - 42.1 °F 57% 29.98 in 10.0 mi NE 3.5 mph - N/A   Clear
1:53 AM 54.0 °F - 42.1 °F 64% 30.00 in 10.0 mi Calm Calm - N/A   Clear
2:53 AM 52.0 °F - 44.1 °F 74% 30.00 in 10.0 mi Calm Calm - N/A   Scattered Clouds
3:53 AM 55.0 °F - 46.9 °F 74% 30.01 in 10.0 mi Calm Calm - N/A   Overcast
4:53 AM 55.9 °F - 44.1 °F 64% 30.01 in 10.0 mi ENE 4.6 mph - N/A   Mostly Cloudy
5:53 AM 55.0 °F - 43.0 °F 64% 30.01 in 10.0 mi East 5.8 mph - N/A   Clear
6:53 AM 55.0 °F - 41.0 °F 59% 30.03 in 10.0 mi Calm Calm - N/A   Mostly Cloudy
7:53 AM 54.0 °F - 44.1 °F 69% 30.04 in 10.0 mi East 4.6 mph - N/A   Clear
8:53 AM 61.0 °F - 44.1 °F 54% 30.05 in 10.0 mi East 8.1 mph - N/A   Clear
9:53 AM 68.0 °F - 42.1 °F 39% 30.05 in 10.0 mi ESE 13.8 mph - N/A   Mostly Cloudy
10:53 AM 73.0 °F - 41.0 °F 31% 30.03 in 10.0 mi ESE 16.1 mph - N/A   Clear
11:53 AM 75.9 °F - 44.1 °F 32% 30.01 in 10.0 mi ESE 18.4 mph 23.0 mph N/A   Partly Cloudy
12:53 PM 78.1 °F - 48.0 °F 35% 29.99 in 10.0 mi SE 13.8 mph 18.4 mph N/A   Clear
1:53 PM 82.0 °F 81.4 °F 55.0 °F 39% 29.95 in 10.0 mi SE 11.5 mph 20.7 mph N/A   Partly Cloudy
2:53 PM 82.9 °F 83.2 °F 60.1 °F 46% 29.93 in 10.0 mi SE 11.5 mph - N/A   Scattered Clouds
3:53 PM 81.0 °F 81.6 °F 60.1 °F 49% 29.90 in 10.0 mi SSE 12.7 mph - N/A   Partly Cloudy
4:53 PM 82.9 °F 83.2 °F 60.1 °F 46% 29.88 in 10.0 mi South 11.5 mph 17.3 mph N/A   Partly Cloudy
5:53 PM 81.0 °F 81.3 °F 59.0 °F 47% 29.88 in 10.0 mi SSE 9.2 mph - N/A   Clear
6:53 PM 77.0 °F - 60.1 °F 56% 29.88 in 10.0 mi SSE 6.9 mph - N/A   Clear
7:53 PM 73.9 °F - 60.1 °F 62% 29.87 in 10.0 mi SSE 8.1 mph - N/A   Clear
8:53 PM 71.1 °F - 60.1 °F 68% 29.88 in 10.0 mi SSE 6.9 mph - N/A   Clear
9:53 PM 68.0 °F - 60.1 °F 76% 29.87 in 10.0 mi SSE 5.8 mph - N/A   Clear
10:53 PM 71.1 °F - 62.1 °F 73% 29.87 in 10.0 mi South 9.2 mph - N/A   Partly Cloudy
11:53 PM 71.1 °F - 62.1 °F 73% 29.86 in 10.0 mi SSE 12.7 mph - N/A   Scattered Clouds